AAR158 RKSI-RJFM

Flight info

Callsign AAR158
Flight time N/A
Altitude 31000
Route OSPOT A582 IKE Y251 OLE KAZSA SASIK LALAG MZE
Aircraft B772/H-SDE2E3FGHIJ5LORVWXY/LB1D1

Departure

Time 2026-05-01 12:24
Airport Incheon International Airport (RKSI)

Arrival

Time N/A
Airport Miyazaki Airport (RJFM)
Time Latitude Longitude Altitude Speed Heading
2026-05-01 11:59 37.45145 126.45429 35 ft 0 kts 182°
2026-05-01 12:14 37.45155 126.45428 36 ft 2 kts 159°
2026-05-01 12:14 37.45169 126.45420 35 ft 2 kts 159°
2026-05-01 12:15 37.45183 126.45414 36 ft 2 kts 162°
2026-05-01 12:15 37.45198 126.45409 36 ft 2 kts 162°
2026-05-01 12:15 37.45213 126.45403 35 ft 2 kts 161°
2026-05-01 12:15 37.45227 126.45396 35 ft 2 kts 161°
2026-05-01 12:16 37.45242 126.45391 35 ft 2 kts 161°
2026-05-01 12:16 37.45256 126.45385 36 ft 2 kts 161°
2026-05-01 12:16 37.45271 126.45379 35 ft 2 kts 161°
2026-05-01 12:16 37.45285 126.45373 36 ft 2 kts 162°
2026-05-01 12:17 37.45300 126.45367 35 ft 2 kts 161°
2026-05-01 12:17 37.45312 126.45362 36 ft 1 kts 162°
2026-05-01 12:17 37.45318 126.45361 35 ft 0 kts 167°
2026-05-01 12:20 37.45317 126.45361 35 ft 0 kts 167°
2026-05-01 12:20 37.45299 126.45366 35 ft 4 kts 166°
2026-05-01 12:20 37.45253 126.45400 35 ft 10 kts 130°
2026-05-01 12:20 37.45229 126.45506 35 ft 14 kts 97°
2026-05-01 12:21 37.45216 126.45634 35 ft 14 kts 93°
2026-05-01 12:21 37.45241 126.45718 35 ft 7 kts 55°
2026-05-01 12:21 37.45273 126.45779 35 ft 7 kts 56°
2026-05-01 12:21 37.45285 126.45801 35 ft 0 kts 56°
2026-05-01 12:22 37.45296 126.45822 35 ft 7 kts 56°
2026-05-01 12:22 37.45347 126.45916 35 ft 18 kts 55°
2026-05-01 12:23 37.45437 126.46038 35 ft 18 kts
2026-05-01 12:23 37.45532 126.45983 35 ft 9 kts 325°
2026-05-01 12:23 37.45653 126.45878 35 ft 53 kts 324°
2026-05-01 12:23 37.46270 126.45327 36 ft 157 kts 323°
2026-05-01 12:24 37.47340 126.44388 691 ft 190 kts 322°
2026-05-01 12:24 37.48519 126.43414 1762 ft 196 kts 324°
2026-05-01 12:24 37.49597 126.42557 2523 ft 182 kts 323°
2026-05-01 12:24 37.50678 126.41650 2611 ft 203 kts 323°
2026-05-01 12:25 37.51938 126.40584 2972 ft 224 kts 324°
2026-05-01 12:25 37.54034 126.38908 4008 ft 237 kts 330°
2026-05-01 12:25 37.55611 126.38210 4752 ft 244 kts 342°
2026-05-01 12:26 37.57280 126.37720 5562 ft 246 kts 342°
2026-05-01 12:26 37.60628 126.36459 7116 ft 250 kts 336°
2026-05-01 12:26 37.62304 126.35785 7966 ft 252 kts 348°
2026-05-01 12:27 37.64087 126.36039 8707 ft 266 kts 15°
2026-05-01 12:27 37.66641 126.39629 10090 ft 299 kts 66°
2026-05-01 12:28 37.67429 126.44877 11573 ft 315 kts 91°
2026-05-01 12:28 37.66819 126.47629 12241 ft 326 kts 108°
2026-05-01 12:28 37.65019 126.53107 13593 ft 343 kts 110°
2026-05-01 12:29 37.63945 126.55924 14003 ft 362 kts 120°
2026-05-01 12:29 37.62455 126.58147 14347 ft 380 kts 135°
2026-05-01 12:29 37.58694 126.62461 15819 ft 391 kts 137°
2026-05-01 12:30 37.54978 126.66410 17213 ft 401 kts 141°
2026-05-01 12:30 37.52859 126.68572 17911 ft 407 kts 141°
2026-05-01 12:30 37.50612 126.70853 18599 ft 413 kts 141°
2026-05-01 12:31 37.48300 126.73203 19289 ft 419 kts 141°
2026-05-01 12:31 37.45953 126.75594 19882 ft 428 kts 141°
2026-05-01 12:31 37.43662 126.77939 20526 ft 432 kts 141°
2026-05-01 12:31 37.41230 126.80405 21193 ft 437 kts 143°
2026-05-01 12:32 37.38718 126.82825 21804 ft 443 kts 143°
2026-05-01 12:32 37.33612 126.87705 22942 ft 456 kts 143°
2026-05-01 12:32 37.31092 126.90110 23439 ft 462 kts 144°
2026-05-01 12:33 37.28772 126.92323 23930 ft 466 kts 144°
2026-05-01 12:33 37.26094 126.94875 24503 ft 471 kts 144°
2026-05-01 12:33 37.23443 126.97399 24994 ft 477 kts 144°
2026-05-01 12:33 37.20732 126.99978 25504 ft 483 kts 145°
2026-05-01 12:34 37.18078 127.02499 25990 ft 489 kts 145°
2026-05-01 12:34 37.15284 127.05151 26487 ft 495 kts 146°
2026-05-01 12:34 37.12453 127.07838 27027 ft 499 kts 146°
2026-05-01 12:34 37.09600 127.10541 27561 ft 504 kts 146°
2026-05-01 12:35 37.06647 127.13337 28040 ft 510 kts 147°
2026-05-01 12:35 37.03741 127.16086 28588 ft 514 kts 147°
2026-05-01 12:35 37.00934 127.18739 29141 ft 517 kts 147°
2026-05-01 12:35 36.98141 127.21376 29652 ft 521 kts 147°
2026-05-01 12:36 36.95227 127.24126 30275 ft 523 kts 147°
2026-05-01 12:36 36.92501 127.26698 30818 ft 525 kts 148°
2026-05-01 12:36 36.89520 127.29504 30949 ft 530 kts 147°
2026-05-01 12:36 36.86659 127.32196 30949 ft 542 kts 147°
2026-05-01 12:37 36.83670 127.35134 30948 ft 558 kts 141°
2026-05-01 12:37 36.80797 127.38525 30958 ft 570 kts 138°
2026-05-01 12:37 36.75009 127.45656 30951 ft 569 kts 138°
2026-05-01 12:38 36.69716 127.52167 30953 ft 566 kts 137°
2026-05-01 12:38 36.63868 127.59332 30958 ft 569 kts 138°
2026-05-01 12:39 36.58084 127.66397 30949 ft 567 kts 139°
2026-05-01 12:39 36.52324 127.73415 30943 ft 568 kts 139°
2026-05-01 12:40 36.47078 127.79792 30945 ft 567 kts 139°
2026-05-01 12:40 36.41318 127.86781 30951 ft 567 kts 139°
2026-05-01 12:41 36.35470 127.93864 30950 ft 570 kts 139°
2026-05-01 12:41 36.29711 128.00822 30958 ft 568 kts 139°
2026-05-01 12:42 36.23992 128.07718 30951 ft 569 kts 139°
2026-05-01 12:42 36.18203 128.14677 30952 ft 567 kts 139°
2026-05-01 12:43 36.12468 128.21559 30950 ft 568 kts 139°
2026-05-01 12:43 36.07765 128.27191 30950 ft 567 kts 139°
2026-05-01 12:44 36.02212 128.33826 30950 ft 572 kts 139°
2026-05-01 12:45 35.90480 128.47201 30947 ft 563 kts 150°
2026-05-01 12:45 35.84114 128.51816 30924 ft 561 kts 156°
2026-05-01 12:46 35.79212 128.55135 30927 ft 557 kts 156°
2026-05-01 12:46 35.71886 128.60078 30930 ft 556 kts 157°
2026-05-01 12:47 35.64990 128.64722 30924 ft 556 kts 157°
2026-05-01 12:47 35.60162 128.67967 30903 ft 555 kts 158°
2026-05-01 12:48 35.53519 128.72424 30904 ft 559 kts 157°
2026-05-01 12:48 35.46624 128.77042 30908 ft 558 kts 157°
2026-05-01 12:49 35.39762 128.81632 30897 ft 557 kts 158°
2026-05-01 12:49 35.32903 128.86209 30899 ft 555 kts 157°
2026-05-01 12:50 35.26071 128.90759 30902 ft 560 kts 158°
2026-05-01 12:50 35.19364 128.95219 30897 ft 559 kts 157°
2026-05-01 12:51 35.12404 128.99841 30897 ft 557 kts 157°
2026-05-01 12:52 35.01905 129.06111 30899 ft 556 kts 161°
2026-05-01 12:52 34.91394 129.12224 30907 ft 553 kts 161°
2026-05-01 12:53 34.80732 129.18433 30895 ft 553 kts 160°
2026-05-01 12:54 34.73766 129.22490 30903 ft 551 kts 161°
2026-05-01 12:54 34.63319 129.28418 30907 ft 552 kts 162°
2026-05-01 12:55 34.52832 129.34300 30912 ft 550 kts 162°
2026-05-01 12:56 34.45854 129.38211 30912 ft 551 kts 162°
2026-05-01 12:56 34.38914 129.42093 30915 ft 550 kts 162°
2026-05-01 12:57 34.31929 129.45996 30927 ft 549 kts 162°
2026-05-01 12:57 34.21400 129.51866 30932 ft 547 kts 162°
2026-05-01 12:58 34.14479 129.55714 30939 ft 550 kts 162°
2026-05-01 12:59 34.04060 129.61499 30946 ft 546 kts 162°
2026-05-01 12:59 33.93565 129.67308 30930 ft 543 kts 162°
2026-05-01 13:00 33.83054 129.73109 30928 ft 546 kts 163°
2026-05-01 13:01 33.76046 129.76811 30934 ft 535 kts 169°
2026-05-01 13:01 33.72562 129.77957 30935 ft 531 kts 178°
2026-05-01 13:02 33.61775 129.79883 30943 ft 521 kts 181°
2026-05-01 13:07 32.86391 129.95946 30985 ft 548 kts 149°
2026-05-01 13:07 32.83337 129.98813 30934 ft 550 kts 144°
2026-05-01 13:07 32.80429 130.01747 30541 ft 542 kts 144°
2026-05-01 13:08 32.77535 130.04677 29741 ft 541 kts 144°
2026-05-01 13:08 32.74640 130.07596 28888 ft 538 kts 144°
2026-05-01 13:08 32.71791 130.10460 28202 ft 530 kts 144°
2026-05-01 13:08 32.69009 130.13252 27836 ft 515 kts 144°
2026-05-01 13:09 32.66295 130.15971 27450 ft 502 kts 144°
2026-05-01 13:09 32.63631 130.18633 26850 ft 495 kts 144°
2026-05-01 13:09 32.61009 130.21245 26239 ft 489 kts 144°
2026-05-01 13:09 32.58411 130.23830 25668 ft 482 kts 144°
2026-05-01 13:10 32.55882 130.26353 25124 ft 475 kts 143°
2026-05-01 13:10 32.53361 130.28870 24585 ft 468 kts 143°
2026-05-01 13:10 32.50868 130.31358 24046 ft 462 kts 143°
2026-05-01 13:10 32.48417 130.33801 23530 ft 456 kts 144°
2026-05-01 13:11 32.46014 130.36194 23004 ft 451 kts 144°
2026-05-01 13:11 32.43613 130.38582 22471 ft 446 kts 143°
2026-05-01 13:11 32.41225 130.40955 21932 ft 441 kts 143°
2026-05-01 13:11 32.38909 130.43256 21411 ft 436 kts 143°
2026-05-01 13:12 32.36606 130.45541 21218 ft 421 kts 143°
2026-05-01 13:12 32.34410 130.47723 21154 ft 407 kts 143°
2026-05-01 13:12 32.32244 130.49870 20863 ft 404 kts 142°
2026-05-01 13:12 32.30211 130.52324 20478 ft 427 kts 130°
2026-05-01 13:13 32.28518 130.55275 20036 ft 441 kts 120°
2026-05-01 13:13 32.27042 130.58473 19624 ft 442 kts 117°
2026-05-01 13:13 32.25586 130.61699 19186 ft 439 kts 117°
2026-05-01 13:13 32.24160 130.64851 18781 ft 435 kts 117°
2026-05-01 13:14 32.22725 130.68016 18344 ft 432 kts 117°
2026-05-01 13:14 32.21292 130.71168 17912 ft 429 kts 117°
2026-05-01 13:14 32.19886 130.74257 17499 ft 426 kts 117°
2026-05-01 13:14 32.18484 130.77333 17088 ft 423 kts 117°
2026-05-01 13:15 32.17249 130.80434 16679 ft 418 kts 112°
2026-05-01 13:15 32.16081 130.83568 16276 ft 415 kts 112°
2026-05-01 13:15 32.14921 130.86705 15863 ft 411 kts 112°
2026-05-01 13:15 32.13771 130.89821 15452 ft 407 kts 112°
2026-05-01 13:16 32.12651 130.92854 15043 ft 403 kts 112°
2026-05-01 13:16 32.11544 130.95866 14623 ft 399 kts 112°
2026-05-01 13:16 32.10448 130.98880 14214 ft 396 kts 112°
2026-05-01 13:17 32.07259 131.07710 13061 ft 381 kts 112°
2026-05-01 13:17 32.06229 131.10556 13007 ft 365 kts 112°
2026-05-01 13:18 32.04284 131.15857 12874 ft 343 kts 112°
2026-05-01 13:18 32.03352 131.18410 12532 ft 342 kts 112°
2026-05-01 13:18 32.02405 131.21001 12155 ft 341 kts 112°
2026-05-01 13:18 32.01455 131.23569 11702 ft 340 kts 112°
2026-05-01 13:19 32.00504 131.26143 11343 ft 336 kts 112°
2026-05-01 13:19 31.99604 131.28673 10982 ft 331 kts 105°
2026-05-01 13:19 31.98960 131.33948 10207 ft 322 kts 92°
2026-05-01 13:20 31.98731 131.36559 9790 ft 320 kts 92°
2026-05-01 13:20 31.98494 131.39175 9382 ft 318 kts 92°
2026-05-01 13:20 31.98253 131.41745 8971 ft 316 kts 92°
2026-05-01 13:21 31.97722 131.46890 8146 ft 312 kts 92°
2026-05-01 13:21 31.97447 131.49428 7764 ft 307 kts 92°
2026-05-01 13:21 31.97165 131.51910 7409 ft 301 kts 92°
2026-05-01 13:21 31.96884 131.54335 7055 ft 296 kts 92°
2026-05-01 13:22 31.96590 131.56741 6702 ft 291 kts 92°
2026-05-01 13:22 31.96285 131.59068 6351 ft 287 kts 92°
2026-05-01 13:22 31.95970 131.61394 5983 ft 283 kts 92°
2026-05-01 13:22 31.95672 131.63672 5644 ft 278 kts 92°
2026-05-01 13:23 31.95382 131.65948 5313 ft 274 kts 92°
2026-05-01 13:23 31.95104 131.68152 5022 ft 269 kts 93°
2026-05-01 13:23 31.94835 131.70334 4724 ft 264 kts 93°
2026-05-01 13:23 31.94582 131.72321 4453 ft 262 kts 96°
2026-05-01 13:24 31.93839 131.74286 4147 ft 266 kts 127°
2026-05-01 13:24 31.92369 131.75618 3841 ft 264 kts 159°
2026-05-01 13:24 31.90591 131.75955 3542 ft 255 kts 190°
2026-05-01 13:25 31.87701 131.74103 2919 ft 228 kts 242°
2026-05-01 13:25 31.87090 131.72435 2612 ft 215 kts 266°
2026-05-01 13:25 31.87191 131.70721 2314 ft 207 kts 289°
2026-05-01 13:25 31.87669 131.69135 2051 ft 204 kts 292°
2026-05-01 13:26 31.88146 131.67651 2007 ft 181 kts 292°
2026-05-01 13:26 31.88576 131.66325 1981 ft 168 kts 295°
2026-05-01 13:26 31.89023 131.65054 1988 ft 168 kts 286°
2026-05-01 13:26 31.89071 131.63676 1989 ft 170 kts 271°
2026-05-01 13:27 31.88951 131.62286 1992 ft 172 kts 270°
2026-05-01 13:27 31.88846 131.60881 1996 ft 172 kts 270°
2026-05-01 13:27 31.88657 131.58165 1993 ft 152 kts 270°
2026-05-01 13:28 31.88479 131.55641 1616 ft 148 kts 269°
2026-05-01 13:28 31.88396 131.54434 1430 ft 148 kts 269°
2026-05-01 13:29 31.88238 131.52025 1042 ft 147 kts 269°
2026-05-01 13:29 31.88013 131.49643 654 ft 145 kts 267°
2026-05-01 13:30 31.87723 131.44998 37 ft 108 kts 266°